Weather History for Hurlburt Field, FL

Change the Weather History Date:

Friday, February 21, 2014

  Actual Average Record
Temperature  
Mean Temperature 58 °F -  
Max Temperature 68 °F 63 °F 75 °F (2005)
Min Temperature 48 °F 45 °F 30 °F (2009)
Degree Days  
Heating Degree Days 7    
Growing Degree Days 8 (Base 50)    
Moisture  
Dew Point 51 °F    
Average Humidity 73    
Maximum Humidity 88    
Minimum Humidity 20    
Precipitation  
Precipitation 1.76 in - - ()
Sea Level Pressure  
Sea Level Pressure 29.97 in    
Wind  
Wind Speed 14 mph (North)    
Max Wind Speed 30 mph    
Max Gust Speed 40 mph    
Visibility 6 miles    
Events Fog , Rain , Thunderstorm    
Averages and records for this station are not official NWS values.
T = Trace of Precipitation, MM = Missing Value Source: NWS Daily Summary

Daily Weather History Graph

Daily Weather History Graph

Search for Another Location

Airport:

Trip Planner

Search our weather history database for the weather conditions in past years. The results will help you decide how hot, cold, wet, or windy it might be!

Date:

Astronomy

Feb. 21, 2014 Rise Set
Actual Time 6:21 AM CST 5:39 PM CST
Civil Twilight 5:57 AM CST 6:04 PM CST
Nautical Twilight 5:29 AM CST 6:32 PM CST
Astronomical Twilight 5:01 AM CST 7:00 PM CST
Moon No Moon Rise 10:13 AM CST (2/21)
Length of Visible Light 12h 07m
Length of Day
11h 18m
Waning Gibbous, 60% of the Moon is Illuminated
Feb 21
Waning Gibbous
Feb 22
Last Quarter
Mar 1
New
Mar 8
First Quarter
Mar 16
Full

Hourly Weather History & Observations

Time (CST) Temp. Dew Point Humidity Pressure Visibility Wind Dir Wind Speed Gust Speed Precip Events Conditions
12:13 AM 66.2 °F 60.8 °F 83% 29.93 in 4.0 mi South 15.0 mph - N/A   Light Drizzle
12:23 AM 66.2 °F 60.8 °F 83% 29.93 in 2.0 mi South 16.1 mph - N/A   Overcast
12:35 AM 66.2 °F 60.8 °F 83% 29.93 in 1.5 mi South 17.3 mph - N/A   Light Drizzle
12:50 AM 66.2 °F 60.8 °F 83% 29.92 in 1.0 mi South 17.3 mph - N/A Rain Light Rain
12:58 AM 65.5 °F 61.5 °F 87% 29.92 in 1.0 mi South 15.0 mph - 0.00 in Rain Light Rain
1:03 AM 66.2 °F 60.8 °F 83% 29.91 in 0.8 mi South 17.3 mph - N/A   Light Drizzle
1:18 AM 66.2 °F 60.8 °F 83% 29.91 in 0.2 mi South 16.1 mph - N/A Fog Fog
1:59 AM 66.2 °F 60.8 °F 83% 29.91 in 0.2 mi South 16.1 mph - N/A Fog Fog
2:03 AM 66.2 °F 60.8 °F 83% 29.90 in 1.2 mi South 16.1 mph - N/A   Overcast
2:07 AM 66.2 °F 60.8 °F 83% 29.89 in 1.2 mi SSE 16.1 mph - N/A   Overcast
2:12 AM 66.2 °F 60.8 °F 83% 29.89 in 1.0 mi SSE 15.0 mph - N/A   Light Drizzle
2:35 AM 66.2 °F 62.6 °F 88% 29.90 in 0.5 mi South 15.0 mph - N/A Fog Fog
2:59 AM 66.2 °F 62.6 °F 88% 29.87 in 0.5 mi South 13.8 mph - N/A Fog Fog
3:31 AM 66.2 °F 62.6 °F 88% 29.88 in 0.5 mi South 11.5 mph - N/A Thunderstorm Mist
3:46 AM 66.2 °F 62.6 °F 88% 29.87 in 1.0 mi South 12.7 mph - N/A Thunderstorm Overcast
3:54 AM 66.2 °F 62.6 °F 88% 29.88 in 2.0 mi South 12.7 mph - N/A Thunderstorm Overcast
3:59 AM 66.2 °F 62.6 °F 88% 29.88 in 2.0 mi South 10.4 mph - N/A Thunderstorm Overcast
4:07 AM 66.2 °F 62.6 °F 88% 29.88 in 4.0 mi South 9.2 mph - N/A Rain , Thunderstorm Light Thunderstorms and Rain
4:22 AM 66.2 °F 62.6 °F 88% 29.92 in 4.0 mi NW 16.1 mph 23.0 mph N/A Rain Light Rain
4:27 AM 64.4 °F 60.8 °F 88% 29.93 in 1.8 mi NNW 8.1 mph 23.0 mph N/A Rain , Thunderstorm Heavy Rain
4:32 AM 62.6 °F 59.0 °F 88% 29.90 in 1.0 mi North 12.7 mph 23.0 mph N/A Rain , Thunderstorm Heavy Thunderstorms and Rain
4:37 AM 62.6 °F 59.0 °F 88% 29.92 in 0.8 mi NNE 11.5 mph - N/A Rain , Thunderstorm Heavy Thunderstorms and Rain
4:52 AM 62.6 °F 57.2 °F 82% 29.94 in 0.8 mi Variable 4.6 mph - N/A Rain , Thunderstorm Heavy Thunderstorms and Rain
4:58 AM 61.9 °F 58.1 °F 87% 29.94 in 0.8 mi Variable 2.3 mph - 1.45 in Rain , Thunderstorm Heavy Thunderstorms and Rain
5:03 AM 62.6 °F 59.0 °F 88% 29.92 in 1.0 mi NNW 1.2 mph - N/A Rain , Thunderstorm Heavy Thunderstorms and Rain
5:08 AM 62.6 °F 59.0 °F 88% 29.92 in 1.8 mi NNW 4.6 mph - N/A Rain , Thunderstorm Heavy Thunderstorms and Rain
5:13 AM 62.6 °F 59.0 °F 88% 29.92 in 4.0 mi NW 4.6 mph - N/A Rain , Thunderstorm Heavy Thunderstorms and Rain
5:33 AM 62.6 °F 57.2 °F 82% 29.92 in 5.0 mi North 4.6 mph - N/A Rain , Thunderstorm Heavy Thunderstorms and Rain
5:43 AM 62.6 °F 59.0 °F 88% 29.94 in 5.0 mi Calm Calm - N/A Rain , Thunderstorm Thunderstorms and Rain
5:44 AM 62.6 °F 59.0 °F 88% 29.94 in 5.0 mi Calm Calm - N/A Rain Rain
5:49 AM 62.6 °F 59.0 °F 88% 29.95 in 8.0 mi NNW 9.2 mph - N/A Rain Light Rain
5:54 AM 60.8 °F 57.2 °F 88% 29.96 in 7.0 mi NNW 25.3 mph 35.7 mph N/A Rain Light Rain
5:58 AM 60.4 °F 55.9 °F 85% 29.98 in 7.0 mi NNW 24.2 mph 35.7 mph 0.31 in Rain Light Rain
6:03 AM 55.4 °F 51.8 °F 88% 29.97 in 10.0 mi NNW 20.7 mph 32.2 mph N/A Rain Light Rain
6:08 AM 55.4 °F 51.8 °F 88% 29.97 in 9.0 mi NNW 20.7 mph 31.1 mph N/A Rain Light Rain
6:18 AM 55.4 °F 51.8 °F 88% 29.98 in 5.0 mi North 19.6 mph 26.5 mph N/A Rain Light Rain
6:23 AM 55.4 °F 51.8 °F 88% 29.99 in 6.0 mi North 23.0 mph 28.8 mph N/A Rain Light Rain
6:33 AM 53.6 °F 48.2 °F 82% 30.00 in 10.0 mi North 29.9 mph 40.3 mph N/A Rain Light Rain
6:38 AM 51.8 °F 48.2 °F 88% 29.99 in 10.0 mi North 23.0 mph 38.0 mph N/A   Overcast
6:58 AM 51.4 °F 46.4 °F 83% 30.01 in 10.0 mi North 18.4 mph - 0.00 in   Overcast
7:23 AM 50.0 °F 44.6 °F 82% 30.02 in 10.0 mi North 19.6 mph 28.8 mph N/A   Mostly Cloudy
7:58 AM 51.3 °F 40.5 °F 67% 30.06 in 10.0 mi North 18.4 mph - N/A   Overcast
8:58 AM 54.1 °F 36.0 °F 50% 30.06 in 10.0 mi North 20.7 mph 25.3 mph N/A   Overcast
9:58 AM 57.7 °F 30.9 °F 36% 30.08 in 10.0 mi NNE 17.3 mph 27.6 mph N/A   Partly Cloudy
10:58 AM 60.4 °F 30.2 °F 32% 30.08 in 10.0 mi North 19.6 mph 24.2 mph N/A   Partly Cloudy
11:58 AM 63.1 °F 30.0 °F 29% 30.06 in 10.0 mi North 17.3 mph 25.3 mph N/A   Clear
12:58 PM 66.0 °F 29.5 °F 25% 30.03 in 10.0 mi North 13.8 mph - N/A   Clear
1:58 PM 66.9 °F 28.0 °F 23% 30.02 in 10.0 mi NNE 13.8 mph - N/A   Clear
2:58 PM 68.2 °F 26.4 °F 21% 30.02 in 10.0 mi NNE 11.5 mph 18.4 mph N/A   Clear
3:58 PM 67.6 °F 24.8 °F 20% 30.02 in 10.0 mi North 9.2 mph - N/A   Clear
4:58 PM 64.4 °F 28.2 °F 26% 30.03 in 10.0 mi North 9.2 mph - N/A   Clear
5:58 PM 58.6 °F 36.7 °F 44% 30.05 in 10.0 mi North 3.5 mph - 0.00 in   Clear
6:58 PM 54.7 °F 38.7 °F 55% 30.06 in 10.0 mi North 5.8 mph - N/A   Clear
7:58 PM 52.3 °F 39.2 °F 61% 30.07 in 10.0 mi North 5.8 mph - N/A   Clear
8:58 PM 50.9 °F 38.3 °F 62% 30.08 in 10.0 mi North 4.6 mph - N/A   Clear
9:58 PM 50.0 °F 37.2 °F 62% 30.09 in 10.0 mi North 5.8 mph - N/A   Clear
10:58 PM 48.7 °F 35.6 °F 60% 30.08 in 10.0 mi NNW 5.8 mph - N/A   Clear
11:58 PM 48.4 °F 32.0 °F 53% 30.10 in 10.0 mi North 8.1 mph - N/A   Clear